1486580400.23,21908,11.25,73478.8,-8.37,-10.01,-10.01,0,*5E
1486580401.44,21909,11.25,73474.0,-8.37,-10.09,-10.09,0,*5F
1486580402.64,21910,11.31,73474.5,-8.37,-10.09,-10.15,0,*5A
1486580403.88,21911,11.25,73472.0,-8.35,-10.15,-10.09,0,*59
1486580405.11,21912,11.25,73472.0,-8.35,-10.09,-10.15,0,*5A
1486580406.33,21913,11.25,73474.8,-8.37,-10.15,-10.09,0,*59
1486580407.56,21914,11.25,73476.8,-8.35,-10.01,-10.09,0,*59
1486580408.76,21915,11.31,73478.8,-8.37,-10.01,-10.09,0,*5A
1486580409.99,21916,11.25,73478.0,-8.35,-10.09,-10.09,0,*53
1486580411.24,21917,11.25,73476.5,-8.35,-10.19,-10.19,0,*52
1486580412.48,21918,11.25,73472.5,-8.35,-10.27,-10.31,0,*5A
1486580413.69,21919,11.25,73472.0,-8.37,-10.19,-10.27,0,*53
1486580414.94,21920,11.25,73474.8,-8.35,-10.19,-10.19,0,*56
1486580416.18,21921,11.31,73474.0,-8.35,-10.19,-10.15,0,*5B
1486580417.4,21922,11.25,73470.3,-8.37,-10.15,-10.15,0,*56
1486580418.65,21923,11.25,73468.3,-8.35,-10.19,-10.15,0,*59
1486580419.87,21924,11.25,73468.3,-8.37,-10.19,-10.15,0,*5C
1486580421.11,21925,11.25,73470.8,-8.35,-10.19,-10.19,0,*53
1486580422.36,21926,11.25,73466.8,-8.35,-10.19,-10.19,0,*50
1486580423.58,21927,11.25,73468.8,-8.37,-10.19,-10.19,0,*53
1486580424.82,21928,11.25,73468.8,-8.35,-10.15,-10.19,0,*52
1486580426.04,21929,11.25,73470.8,-8.37,-10.15,-10.15,0,*5D
1486580427.28,21930,11.25,73466.5,-8.35,-10.15,-10.15,0,*57
1486580428.52,21931,11.25,73470.5,-8.35,-10.09,-10.19,0,*57
1486580429.76,21932,11.25,73468.0,-8.35,-10.15,-10.15,0,*55
1486580431.01,21933,11.31,73468.5,-8.35,-10.15,-10.19,0,*58
1486580432.25,21934,11.25,73464.3,-8.35,-10.15,-10.19,0,*5F
1486580433.47,21935,11.25,73470.0,-8.37,-10.15,-10.19,0,*5C
1486580434.72,21936,11.25,73466.0,-8.35,-10.19,-10.15,0,*5D
1486580435.96,21937,11.25,73468.8,-8.35,-10.15,-10.15,0,*50
1486580437.21,21938,11.25,73468.8,-8.35,-10.15,-10.19,0,*53
1486580438.45,21939,11.25,73466.0,-8.35,-10.19,-10.19,0,*5E
1486580439.67,21940,11.25,73464.5,-8.37,-10.15,-10.19,0,*5E
1486580440.92,21941,11.25,73466.0,-8.35,-10.19,-10.19,0,*51
1486580442.16,21942,11.25,73464.3,-8.35,-10.15,-10.09,0,*5F
1486580443.36,21943,11.25,73466.0,-8.33,-10.09,-10.09,0,*55
1486580444.6,21944,11.25,73468.0,-8.35,-10.15,-10.15,0,*54
1486580445.85,21945,11.25,73466.5,-8.35,-10.19,-10.15,0,*59
1486580447.09,21946,11.25,73464.8,-8.35,-10.19,-10.15,0,*5A
1486580448.31,21947,11.25,73460.0,-8.33,-10.15,-10.15,0,*51
1486580449.53,21948,11.25,73464.0,-8.33,-10.15,-10.15,0,*5E
1486580450.74,21949,11.25,73464.0,-8.33,-10.23,-10.23,0,*5F
1486580451.98,21950,11.25,73468.0,-8.35,-10.27,-10.27,0,*51
1486580453.22,21951,11.25,73462.0,-8.35,-10.27,-10.27,0,*50
1486580454.46,21952,11.25,73468.0,-8.35,-10.19,-10.27,0,*5E
1486580455.71,21953,11.25,73462.5,-8.35,-10.19,-10.27,0,*5F
1486580456.95,21954,11.31,73468.5,-8.35,-10.27,-10.19,0,*58
1486580458.19,21955,11.25,73466.8,-8.35,-10.27,-10.31,0,*53
1486580459.43,21956,11.25,73464.5,-8.35,-10.19,-10.27,0,*5A
1486580460.68,21957,11.25,73464.3,-8.35,-10.19,-10.27,0,*5B
1486580461.92,21958,11.25,73470.3,-8.35,-10.19,-10.19,0,*59
1486580463.17,21959,11.25,73468.3,-8.35,-10.15,-10.19,0,*54
1486580464.41,21960,11.25,73464.8,-8.35,-10.19,-10.19,0,*52
1486580465.66,21961,11.25,73470.0,-8.35,-10.19,-10.27,0,*5E
1486580466.87,21962,11.25,73470.0,-8.33,-10.23,-10.23,0,*56
1486580468.11,21963,11.25,73470.3,-8.35,-10.27,-10.31,0,*56
1486580469.35,21964,11.25,73468.0,-8.35,-10.19,-10.27,0,*5B
1486580470.6,21965,11.25,73466.3,-8.35,-10.19,-10.27,0,*5A
1486580471.81,21966,11.25,73466.8,-8.37,-10.19,-10.27,0,*5B
1486580473.08,21967,11.25,73466.8,-8.35,-10.27,-10.41,0,*55
1486580474.35,21968,11.25,73466.8,-8.35,-10.27,-10.41,0,*5A
1486580475.61,21969,11.25,73468.8,-8.35,-10.31,-10.41,0,*5C
1486580476.88,21970,11.25,73466.0,-8.35,-10.31,-10.41,0,*54
1486580478.12,21971,11.25,73468.8,-8.35,-10.27,-10.27,0,*52
1486580479.36,21972,11.25,73470.8,-8.35,-10.27,-10.31,0,*56
1486580480.6,21973,11.25,73472.0,-8.35,-10.19,-10.19,0,*50
1486580481.85,21974,11.25,73470.5,-8.35,-10.27,-10.19,0,*5A
1486580483.09,21975,11.25,73474.3,-8.35,-10.27,-10.19,0,*5B
1486580484.33,21976,11.25,73474.0,-8.35,-10.19,-10.19,0,*55
1486580485.58,21977,11.25,73472.0,-8.35,-10.27,-10.19,0,*59
1486580486.84,21978,11.25,73474.5,-8.35,-10.41,-10.27,0,*5B
1486580488.08,21979,11.25,73470.5,-8.37,-10.41,-10.31,0,*5F
1486580489.35,21980,11.25,73464.3,-8.35,-10.45,-10.41,0,*58
1486580490.61,21981,11.25,73466.3,-8.35,-10.41,-10.27,0,*5D
1486580491.88,21982,11.25,73466.8,-8.35,-10.41,-10.31,0,*59
1486580493.15,21983,11.25,73466.0,-8.35,-10.41,-10.27,0,*5F
1486580494.41,21984,11.25,73462.8,-8.35,-10.41,-10.27,0,*58
1486580495.65,21985,11.25,73464.0,-8.35,-10.53,-10.31,0,*5D
1486580496.89,21986,11.25,73466.0,-8.35,-10.57,-10.45,0,*59
1486580498.12,21987,11.25,73466.8,-8.35,-10.53,-10.45,0,*5C
1486580499.35,21988,11.25,73466.8,-8.35,-10.53,-10.45,0,*53
1486580500.58,21989,11.25,73462.8,-8.35,-10.53,-10.53,0,*55
1486580501.81,21990,11.25,73456.8,-8.35,-10.57,-10.53,0,*59
1486580503.08,21991,11.25,73462.5,-8.35,-10.67,-10.53,0,*5B
1486580504.31,21992,11.25,73464.5,-8.35,-10.53,-10.53,0,*5F
1486580505.52,21993,11.25,73464.5,-8.37,-10.57,-10.57,0,*5C
1486580506.82,21994,11.25,73466.8,-8.35,-10.71,-10.67,0,*5E
1486580508.06,21995,11.25,73464.8,-8.37,-10.67,-10.57,0,*59
1486580509.33,21996,11.25,73462.5,-8.35,-10.67,-10.57,0,*58
1486580510.62,21997,11.25,73466.8,-8.35,-10.71,-10.71,0,*5A
1486580511.88,21998,11.25,73462.8,-8.37,-10.71,-10.67,0,*50
1486580513.18,21999,11.31,73462.0,-8.35,-10.67,-10.67,0,*54
1486580514.45,22000,11.25,73460.0,-8.37,-10.71,-10.67,0,*5B
1486580515.72,22001,11.25,73458.8,-8.37,-10.67,-10.71,0,*5A
1486580516.99,22002,11.25,73460.0,-8.37,-10.67,-10.67,0,*5E
1486580518.26,22003,11.25,73462.8,-8.37,-10.67,-10.67,0,*5F
1486580519.53,22004,11.25,73462.8,-8.37,-10.67,-10.67,0,*58
1486580520.74,22005,11.25,73458.5,-8.37,-10.57,-10.53,0,*5D
1486580521.98,22006,11.25,73460.5,-8.35,-10.57,-10.57,0,*58
1486580523.25,22007,11.25,73462.8,-8.35,-10.67,-10.57,0,*5A
1486580524.46,22008,11.25,73464.0,-8.37,-10.53,-10.57,0,*50
1486580525.72,22009,11.25,73460.8,-8.35,-10.67,-10.57,0,*54
1486580526.99,22010,11.25,73460.0,-8.35,-10.67,-10.57,0,*5C
1486580528.2,22011,11.25,73466.5,-8.37,-10.57,-10.57,0,*5C
1486580529.43,22012,11.25,73460.8,-8.35,-10.53,-10.45,0,*5A
1486580530.66,22013,11.31,73464.0,-8.35,-10.53,-10.45,0,*5B
1486580531.89,22014,11.25,73462.0,-8.35,-10.53,-10.53,0,*5B
1486580533.13,22015,11.25,73466.8,-8.35,-10.53,-10.53,0,*5A
1486580534.33,22016,11.25,73466.3,-8.37,-10.45,-10.57,0,*58
1486580535.57,22017,11.25,73470.0,-8.35,-10.57,-10.45,0,*5B
1486580536.78,22018,11.25,73466.3,-8.37,-10.45,-10.45,0,*55
1486580538.07,22019,11.25,73466.3,-8.35,-10.41,-10.41,0,*56
1486580539.28,22020,11.25,73462.0,-8.37,-10.45,-10.53,0,*59
1486580540.49,22021,11.25,73466.5,-8.37,-10.45,-10.45,0,*5F
1486580541.72,22022,11.25,73468.0,-8.37,-10.41,-10.45,0,*58
1486580542.99,22023,11.25,73470.8,-8.37,-10.41,-10.41,0,*5D
1486580544.21,22024,11.25,73470.0,-8.37,-10.31,-10.31,0,*5A
1486580545.45,22025,11.25,73468.0,-8.37,-10.31,-10.41,0,*5C
1486580546.68,22026,11.25,73466.8,-8.37,-10.41,-10.45,0,*5C
1486580547.92,22027,11.25,73468.3,-8.37,-10.31,-10.41,0,*5E
1486580549.16,22028,11.25,73470.8,-8.35,-10.31,-10.31,0,*54
1486580550.4,22029,11.25,73472.3,-8.35,-10.31,-10.45,0,*56
1486580551.64,22030,11.25,73472.0,-8.35,-10.27,-10.31,0,*5A
1486580552.88,22031,11.25,73472.3,-8.37,-10.27,-10.41,0,*5E
1486580554.12,22032,11.25,73472.5,-8.37,-10.31,-10.41,0,*5A
1486580555.38,22033,11.25,73472.0,-8.35,-10.41,-10.45,0,*5A
1486580556.68,22034,11.25,73470.0,-8.35,-10.41,-10.41,0,*59
1486580557.91,22035,11.25,73470.8,-8.39,-10.45,-10.49,0,*58
1486580559.17,22036,11.25,73472.0,-8.35,-10.41,-10.45,0,*5F
1486580560.44,22037,11.25,73474.8,-8.37,-10.41,-10.41,0,*58
1486580561.7,22038,11.25,73472.8,-8.35,-10.31,-10.41,0,*52
1486580562.97,22039,11.25,73474.0,-8.37,-10.41,-10.41,0,*56
1486580564.24,22040,11.25,73472.8,-8.35,-10.27,-10.41,0,*5A
1486580565.45,22041,11.25,73472.8,-8.37,-10.45,-10.45,0,*59
1486580566.66,22042,11.25,73470.8,-8.37,-10.27,-10.31,0,*5D
1486580567.87,22043,11.25,73474.0,-8.37,-10.31,-10.27,0,*5C
1486580569.11,22044,11.25,73472.0,-8.37,-10.31,-10.41,0,*5B
1486580570.36,22045,11.25,73470.8,-8.37,-10.31,-10.41,0,*5A
1486580571.65,22046,11.25,73472.5,-8.35,-10.41,-10.41,0,*5C
1486580572.89,22047,11.25,73466.8,-8.37,-10.31,-10.41,0,*58
1486580574.16,22048,11.31,73474.8,-8.37,-10.41,-10.41,0,*50
1486580575.39,22049,11.25,73470.3,-8.37,-10.41,-10.45,0,*55
1486580576.66,22050,11.25,73468.5,-8.35,-10.45,-10.41,0,*5F
1486580577.92,22051,11.25,73468.3,-8.37,-10.41,-10.41,0,*58
1486580579.16,22052,11.25,73468.3,-8.37,-10.41,-10.45,0,*5F
1486580580.43,22053,11.25,73470.8,-8.37,-10.41,-10.41,0,*5A
1486580581.69,22054,11.25,73474.5,-8.37,-10.41,-10.41,0,*5D
1486580582.96,22055,11.25,73472.8,-8.35,-10.31,-10.41,0,*59
1486580584.18,22056,11.25,73472.5,-8.37,-10.31,-10.31,0,*5F
1486580585.42,22057,11.31,73476.8,-8.37,-10.31,-10.41,0,*59
1486580586.66,22058,11.25,73474.0,-8.37,-10.27,-10.41,0,*51
1486580587.9,22059,11.25,73474.0,-8.37,-10.27,-10.41,0,*50
1486580589.14,22060,11.25,73472.3,-8.37,-10.31,-10.41,0,*5D
1486580590.38,22061,11.25,73472.0,-8.35,-10.27,-10.31,0,*5E
1486580591.59,22062,11.25,73472.3,-8.37,-10.19,-10.27,0,*55
1486580592.81,22063,11.25,73474.0,-8.37,-10.27,-10.31,0,*5E
1486580594.02,22064,11.25,73474.5,-8.37,-10.27,-10.31,0,*59
1486580595.24,22065,11.25,73472.0,-8.37,-10.27,-10.27,0,*5F
1486580596.48,22066,11.25,73474.8,-8.35,-10.27,-10.27,0,*5E
1486580597.72,22067,11.25,73472.0,-8.35,-10.27,-10.31,0,*58
1486580598.96,22068,11.25,73474.3,-8.35,-10.19,-10.19,0,*50
1486580600.18,22069,11.25,73474.8,-8.37,-10.15,-10.15,0,*53
1486580601.43,22070,11.25,73478.3,-8.35,-10.19,-10.15,0,*55
1486580602.65,22071,11.25,73476.3,-8.37,-10.19,-10.19,0,*5A
1486580603.87,22072,11.25,73478.8,-8.37,-10.19,-10.19,0,*59
1486580605.11,22073,11.25,73476.5,-8.35,-10.19,-10.27,0,*57
1486580606.33,22074,11.25,73476.0,-8.37,-10.19,-10.19,0,*5F
1486580607.58,22075,11.25,73478.0,-8.35,-10.15,-10.15,0,*5C
1486580608.81,22076,11.25,73476.8,-8.35,-10.15,-10.09,0,*52
1486580610.05,22077,11.25,73478.5,-8.35,-10.09,-10.19,0,*5F
1486580611.27,22078,11.25,73480.5,-8.37,-10.15,-10.19,0,*5F
1486580612.51,22079,11.25,73480.5,-8.35,-10.15,-10.15,0,*50
1486580613.76,22080,11.25,73478.3,-8.35,-10.19,-10.19,0,*56
1486580615.0,22081,11.25,73478.3,-8.35,-10.19,-10.19,0,*57
1486580616.22,22082,11.25,73476.3,-8.37,-10.15,-10.19,0,*5A
1486580617.47,22083,11.25,73482.0,-8.35,-10.19,-10.15,0,*59
1486580618.71,22084,11.25,73486.0,-8.35,-10.19,-10.19,0,*52
1486580619.96,22085,11.25,73480.3,-8.35,-10.19,-10.19,0,*53
1486580621.2,22086,11.25,73484.8,-8.35,-10.15,-10.19,0,*5C
1486580622.45,22087,11.25,73484.5,-8.35,-10.15,-10.19,0,*5D
1486580623.69,22088,11.25,73480.3,-8.35,-10.19,-10.15,0,*52
1486580624.91,22089,11.25,73480.3,-8.37,-10.15,-10.19,0,*51
1486580626.15,22090,11.25,73476.8,-8.35,-10.19,-10.15,0,*5B
1486580627.4,22091,11.25,73476.8,-8.35,-10.19,-10.19,0,*56
1486580628.64,22092,11.25,73480.3,-8.35,-10.15,-10.19,0,*59
1486580629.89,22093,11.25,73480.0,-8.35,-10.19,-10.15,0,*58
1486580631.11,22094,11.25,73484.5,-8.37,-10.19,-10.19,0,*51
1486580632.33,22095,11.25,73480.0,-8.37,-10.27,-10.19,0,*5D
1486580633.55,22096,11.25,73482.3,-8.37,-10.19,-10.19,0,*53
1486580634.79,22097,11.25,73482.0,-8.35,-10.15,-10.19,0,*5C
1486580636.04,22098,11.25,73478.5,-8.35,-10.19,-10.15,0,*53
1486580637.28,22099,11.25,73476.8,-8.35,-10.19,-10.19,0,*5E
1486580638.53,22100,11.25,73478.3,-8.35,-10.15,-10.19,0,*53
1486580639.77,22101,11.25,73476.8,-8.35,-10.19,-10.19,0,*5E
1486580641.02,22102,11.25,73482.8,-8.35,-10.15,-10.15,0,*5D
1486580642.22,22103,11.25,73482.8,-8.33,-10.09,-10.15,0,*57
1486580643.47,22104,11.25,73478.5,-8.35,-10.27,-10.19,0,*56
1486580644.7,22105,11.25,73476.5,-8.35,-10.15,-10.09,0,*57
1486580645.95,22106,11.25,73474.0,-8.35,-10.15,-10.19,0,*55
1486580647.19,22107,11.25,73472.8,-8.35,-10.19,-10.19,0,*58
1486580648.44,22108,11.25,73476.8,-8.35,-10.27,-10.19,0,*5A
1486580649.68,22109,11.25,73472.5,-8.35,-10.27,-10.19,0,*5B
1486580650.92,22110,11.25,73476.5,-8.35,-10.27,-10.19,0,*53
1486580652.16,22111,11.25,73474.0,-8.35,-10.27,-10.27,0,*5F
1486580653.4,22112,11.25,73470.3,-8.35,-10.19,-10.27,0,*51
1486580654.65,22113,11.25,73478.0,-8.35,-10.19,-10.27,0,*50
1486580655.89,22114,11.25,73476.0,-8.35,-10.19,-10.27,0,*57
1486580657.11,22115,11.25,73472.5,-8.37,-10.19,-10.19,0,*59
1486580658.33,22116,11.25,73478.0,-8.33,-10.15,-10.23,0,*5B
1486580659.56,22117,11.25,73472.3,-8.35,-10.31,-10.31,0,*59
1486580660.8,22118,11.25,73474.8,-8.35,-10.27,-10.31,0,*51
1486580662.04,22119,11.25,73474.5,-8.35,-10.27,-10.31,0,*50
1486580663.28,22120,11.25,73472.5,-8.35,-10.27,-10.27,0,*5D
1486580664.52,22121,11.25,73478.5,-8.35,-10.27,-10.31,0,*5B
1486580665.76,22122,11.25,73476.8,-8.35,-10.27,-10.31,0,*58
1486580667.0,22123,11.25,73478.0,-8.35,-10.27,-10.27,0,*5E
1486580668.25,22124,11.25,73480.0,-8.35,-10.27,-10.27,0,*59
1486580669.48,22125,11.25,73476.5,-8.35,-10.27,-10.31,0,*5F
1486580670.73,22126,11.25,73478.0,-8.35,-10.19,-10.27,0,*56
1486580671.94,22127,11.25,73480.0,-8.37,-10.27,-10.31,0,*5F
1486580673.18,22128,11.25,73476.5,-8.35,-10.31,-10.31,0,*55
1486580674.45,22129,11.25,73476.8,-8.35,-10.31,-10.41,0,*53
1486580675.71,22130,11.25,73472.8,-8.35,-10.41,-10.45,0,*58
1486580676.95,22131,11.25,73476.3,-8.35,-10.27,-10.45,0,*59
1486580678.18,22132,11.25,73476.3,-8.35,-10.31,-10.45,0,*5D
1486580679.45,22133,11.25,73474.5,-8.35,-10.27,-10.41,0,*5F
1486580680.69,22134,11.25,73478.8,-8.35,-10.27,-10.31,0,*5F
1486580681.95,22135,11.25,73474.5,-8.35,-10.27,-10.41,0,*59
1486580683.19,22136,11.25,73476.5,-8.35,-10.27,-10.31,0,*5D
1486580684.43,22137,11.25,73474.8,-8.35,-10.27,-10.45,0,*5F
1486580685.67,22138,11.25,73474.3,-8.35,-10.19,-10.31,0,*5E
1486580686.89,22139,11.25,73470.3,-8.37,-10.27,-10.31,0,*50
1486580688.13,22140,11.25,73472.3,-8.35,-10.27,-10.31,0,*5C
1486580689.39,22141,11.25,73468.5,-8.35,-10.31,-10.41,0,*5D
1486580690.66,22142,11.25,73472.0,-8.35,-10.31,-10.41,0,*5E
1486580691.9,22143,11.25,73472.0,-8.37,-10.31,-10.41,0,*5D
1486580693.11,22144,11.25,73472.0,-8.37,-10.31,-10.45,0,*5E
1486580694.38,22145,11.25,73478.3,-8.35,-10.31,-10.41,0,*59
1486580695.64,22146,11.25,73474.5,-8.35,-10.27,-10.41,0,*5D
1486580696.91,22147,11.25,73478.3,-8.35,-10.31,-10.41,0,*5B
1486580698.15,22148,11.25,73478.5,-8.35,-10.27,-10.31,0,*54
1486580699.39,22149,11.25,73478.8,-8.35,-10.19,-10.19,0,*52
1486580700.64,22150,11.25,73474.3,-8.35,-10.15,-10.19,0,*56
1486580701.86,22151,11.25,73472.0,-8.37,-10.15,-10.27,0,*58
1486580703.1,22152,11.25,73476.0,-8.35,-10.19,-10.27,0,*55
1486580704.34,22153,11.25,73472.3,-8.35,-10.27,-10.31,0,*5E
1486580705.58,22154,11.25,73470.5,-8.35,-10.19,-10.27,0,*53
1486580706.8,22155,11.25,73478.8,-8.37,-10.19,-10.31,0,*57
1486580708.04,22156,11.25,73478.0,-8.35,-10.27,-10.31,0,*5B
1486580709.28,22157,11.25,73476.0,-8.35,-10.27,-10.27,0,*5D
1486580710.52,22158,11.25,73478.0,-8.35,-10.15,-10.27,0,*53
1486580711.77,22159,11.25,73478.8,-8.35,-10.15,-10.19,0,*5F
1486580713.01,22160,11.25,73478.0,-8.35,-10.27,-10.27,0,*59
1486580714.25,22161,11.25,73472.5,-8.35,-10.31,-10.31,0,*58
1486580715.49,22162,11.25,73474.0,-8.35,-10.27,-10.31,0,*5C
1486580716.71,22163,11.25,73472.3,-8.37,-10.19,-10.31,0,*52
1486580717.93,22164,11.25,73472.5,-8.37,-10.19,-10.27,0,*52
1486580719.14,22165,11.25,73474.0,-8.37,-10.19,-10.27,0,*53
1486580720.36,22166,11.25,73472.8,-8.37,-10.15,-10.19,0,*51
1486580721.61,22167,11.25,73472.8,-8.35,-10.19,-10.19,0,*5E
1486580722.85,22168,11.25,73474.8,-8.35,-10.19,-10.19,0,*51
1486580724.1,22169,11.25,73472.0,-8.35,-10.15,-10.19,0,*5C
1486580725.33,22170,11.25,73478.8,-8.35,-10.09,-10.15,0,*55
1486580726.54,22171,11.25,73474.8,-8.37,-10.09,-10.15,0,*56
1486580727.79,22172,11.25,73476.8,-8.35,-10.15,-10.19,0,*56
1486580729.03,22173,11.25,73476.5,-8.35,-10.19,-10.27,0,*56
1486580730.25,22174,11.25,73476.8,-8.37,-10.15,-10.19,0,*52
1486580731.49,22175,11.25,73478.5,-8.35,-10.19,-10.27,0,*50
1486580732.73,22176,11.25,73478.5,-8.35,-10.09,-10.19,0,*5F
1486580733.97,22177,11.25,73476.0,-8.35,-10.15,-10.19,0,*53
1486580735.22,22178,11.25,73476.3,-8.35,-10.15,-10.19,0,*5C
1486580736.46,22179,11.25,73480.0,-8.35,-10.15,-10.19,0,*5D
1486580737.71,22180,11.25,73480.3,-8.35,-10.15,-10.19,0,*5B
1486580738.95,22181,11.25,73480.3,-8.35,-10.15,-10.19,0,*5A
1486580740.2,22182,11.25,73482.3,-8.35,-10.15,-10.19,0,*59
1486580741.44,22183,11.25,73480.8,-8.35,-10.15,-10.19,0,*58
1486580742.69,22184,11.25,73478.3,-8.35,-10.15,-10.15,0,*53
1486580743.93,22185,11.25,73476.5,-8.35,-10.19,-10.19,0,*52
1486580745.18,22186,11.25,73478.0,-8.35,-10.15,-10.19,0,*5D
1486580746.42,22187,11.25,73482.3,-8.35,-10.19,-10.27,0,*5D
1486580747.67,22188,11.25,73476.8,-8.35,-10.19,-10.19,0,*5F
1486580748.91,22189,11.25,73480.8,-8.35,-10.15,-10.19,0,*52
1486580750.16,22190,11.25,73480.3,-8.35,-10.15,-10.15,0,*56
1486580751.37,22191,11.25,73482.0,-8.37,-10.15,-10.15,0,*55
1486580752.61,22192,11.25,73480.0,-8.35,-10.09,-10.19,0,*55
1486580753.85,22193,11.25,73480.5,-8.35,-10.19,-10.27,0,*58
1486580755.07,22194,11.25,73480.0,-8.37,-10.19,-10.27,0,*5D
1486580756.32,22195,11.25,73478.8,-8.35,-10.19,-10.27,0,*5E
1486580757.56,22196,11.25,73482.3,-8.35,-10.27,-10.27,0,*50
1486580758.78,22197,11.25,73482.5,-8.37,-10.27,-10.27,0,*53
1486580760.02,22198,11.25,73480.8,-8.35,-10.27,-10.27,0,*5E
1486580761.26,22199,11.25,73474.3,-8.35,-10.19,-10.27,0,*52
1486580762.48,22200,11.25,73482.5,-8.37,-10.15,-10.19,0,*52
1486580763.72,22201,11.25,73482.5,-8.35,-10.19,-10.27,0,*50
1486580764.93,22202,11.25,73482.0,-8.33,-10.09,-10.15,0,*55
1486580766.15,22203,11.25,73476.5,-8.33,-10.15,-10.23,0,*5C
1486580767.39,22204,11.25,73478.5,-8.35,-10.19,-10.15,0,*54
1486580768.63,22205,11.25,73476.8,-8.35,-10.19,-10.19,0,*59
1486580769.88,22206,11.25,73474.0,-8.35,-10.19,-10.15,0,*56
1486580771.1,22207,11.25,73476.3,-8.33,-10.15,-10.15,0,*5D
1486580772.31,22208,11.25,73476.8,-8.33,-10.23,-10.27,0,*56
1486580773.55,22209,11.25,73474.0,-8.35,-10.27,-10.27,0,*55
1486580774.79,22210,11.25,73472.5,-8.35,-10.27,-10.31,0,*5A
1486580776.04,22211,11.25,73472.8,-8.35,-10.31,-10.27,0,*5B
1486580777.27,22212,11.25,73472.0,-8.35,-10.31,-10.31,0,*5F
1486580778.52,22213,11.25,73472.8,-8.35,-10.27,-10.27,0,*5E
1486580779.76,22214,11.25,73470.8,-8.35,-10.19,-10.27,0,*54
1486580781.0,22215,11.25,73464.5,-8.35,-10.27,-10.19,0,*55
1486580782.22,22216,11.25,73466.5,-8.37,-10.27,-10.27,0,*59
1486580783.46,22217,11.25,73468.5,-8.35,-10.19,-10.27,0,*57
1486580784.68,22218,11.25,73464.5,-8.37,-10.19,-10.27,0,*5A
1486580785.92,22219,11.25,73468.0,-8.35,-10.19,-10.31,0,*5E
1486580787.17,22220,11.25,73470.5,-8.35,-10.15,-10.15,0,*5E
1486580788.41,22221,11.25,73474.8,-8.35,-10.15,-10.15,0,*5F
1486580789.66,22222,11.25,73468.8,-8.35,-10.15,-10.19,0,*50
1486580790.9,22223,11.25,73470.8,-8.35,-10.19,-10.19,0,*5D
1486580792.15,22224,11.25,73470.0,-8.35,-10.15,-10.19,0,*56
1486580793.39,22225,11.25,73470.3,-8.35,-10.15,-10.27,0,*5A
1486580794.64,22226,11.25,73476.5,-8.35,-10.15,-10.19,0,*54
1486580795.88,22227,11.25,73472.8,-8.35,-10.15,-10.15,0,*59
1486580797.13,22228,11.25,73474.8,-8.35,-10.15,-10.19,0,*5A
1486580798.37,22229,11.25,73472.8,-8.35,-10.19,-10.19,0,*57
1486580799.61,22230,11.25,73468.3,-8.35,-10.09,-10.15,0,*52
1486580800.85,22231,11.25,73474.0,-8.35,-10.15,-10.15,0,*5E
1486580802.07,22232,11.25,73466.3,-8.37,-10.15,-10.15,0,*5F
1486580803.31,22233,11.25,73464.0,-8.35,-10.19,-10.19,0,*5C
1486580804.53,22234,11.25,73462.8,-8.37,-10.19,-10.19,0,*59
1486580805.78,22235,11.25,73460.8,-8.35,-10.15,-10.15,0,*5A
1486580807.0,22236,11.25,73462.5,-8.37,-10.15,-10.15,0,*5B
1486580808.24,22237,11.25,73466.8,-8.35,-10.15,-10.19,0,*54
1486580809.49,22238,11.25,73470.3,-8.35,-10.15,-10.15,0,*57
1486580810.73,22239,11.25,73464.5,-8.35,-10.15,-10.15,0,*56
1486580811.97,22240,11.25,73466.8,-8.35,-10.15,-10.15,0,*58
1486580813.2,22241,11.25,73472.0,-8.35,-10.09,-10.09,0,*59
1486580814.45,22242,11.25,73472.5,-8.35,-10.19,-10.19,0,*5A
1486580815.67,22243,11.25,73464.0,-8.37,-10.19,-10.15,0,*55
1486580816.91,22244,11.25,73466.0,-8.35,-10.19,-10.15,0,*50
1486580818.16,22245,11.25,73470.0,-8.35,-10.19,-10.19,0,*5D
1486580819.37,22246,11.25,73474.0,-8.37,-10.15,-10.27,0,*5D
1486580820.62,22247,11.25,73468.5,-8.35,-10.19,-10.19,0,*5F
1486580821.87,22248,11.25,73472.5,-8.35,-10.19,-10.19,0,*50
1486580823.11,22249,11.25,73470.5,-8.35,-10.15,-10.15,0,*51
1486580824.35,22250,11.25,73468.3,-8.35,-10.19,-10.19,0,*59
1486580825.6,22251,11.25,73474.0,-8.35,-10.19,-10.15,0,*54
1486580826.82,22252,11.25,73472.8,-8.37,-10.19,-10.15,0,*55
1486580828.06,22253,11.25,73478.0,-8.35,-10.15,-10.15,0,*5A
1486580829.31,22254,11.25,73472.5,-8.35,-10.19,-10.19,0,*5D
1486580830.55,22255,11.25,73472.5,-8.35,-10.19,-10.19,0,*5C
1486580831.77,22256,11.25,73470.5,-8.33,-10.15,-10.15,0,*59
1486580832.97,22257,11.25,73474.5,-8.33,-10.09,-10.09,0,*58
1486580834.22,22258,11.25,73474.5,-8.35,-10.19,-10.19,0,*51
1486580835.46,22259,11.25,73476.3,-8.35,-10.15,-10.19,0,*5C
1486580836.71,22260,11.25,73468.8,-8.35,-10.19,-10.19,0,*5A
1486580837.93,22261,11.25,73472.3,-8.33,-10.15,-10.15,0,*5D
1486580839.17,22262,11.25,73478.5,-8.35,-10.15,-10.19,0,*54
1486580840.42,22263,11.25,73474.3,-8.35,-10.19,-10.27,0,*54
1486580841.66,22264,11.25,73478.8,-8.35,-10.27,-10.31,0,*59
1486580842.9,22265,11.25,73478.0,-8.35,-10.31,-10.31,0,*5F
1486580844.14,22266,11.25,73476.5,-8.35,-10.31,-10.27,0,*5B
1486580845.35,22267,11.25,73476.5,-8.37,-10.31,-10.27,0,*58
1486580846.59,22268,11.25,73480.5,-8.35,-10.27,-10.27,0,*52
1486580847.84,22269,11.25,73480.8,-8.35,-10.27,-10.27,0,*53
1486580849.08,22270,11.25,73482.8,-8.35,-10.19,-10.27,0,*56
1486580850.32,22271,11.25,73476.3,-8.35,-10.19,-10.27,0,*57
1486580851.57,22272,11.25,73476.8,-8.35,-10.19,-10.27,0,*54
1486580852.81,22273,11.25,73480.0,-8.35,-10.19,-10.31,0,*52
1486580854.05,22274,11.25,73476.8,-8.35,-10.31,-10.31,0,*5F
1486580855.27,22275,11.25,73476.0,-8.33,-10.27,-10.27,0,*58
1486580856.51,22276,11.25,73482.3,-8.35,-10.31,-10.31,0,*5D
1486580857.75,22277,11.25,73480.5,-8.35,-10.27,-10.31,0,*5B
1486580858.98,22278,11.25,73480.5,-8.35,-10.27,-10.31,0,*54
1486580860.22,22279,11.25,73480.0,-8.35,-10.27,-10.31,0,*55
1486580861.49,22280,11.25,73484.5,-8.35,-10.31,-10.41,0,*53
1486580862.78,22281,11.25,73474.8,-8.35,-10.41,-10.41,0,*55
1486580864.02,22282,11.25,73474.5,-8.35,-10.45,-10.53,0,*51
1486580865.25,22283,11.25,73472.3,-8.35,-10.45,-10.57,0,*54
1486580866.48,22284,11.25,73468.5,-8.35,-10.53,-10.57,0,*54
1486580867.71,22285,11.25,73470.3,-8.35,-10.45,-10.53,0,*56
1486580868.92,22286,11.25,73474.5,-8.37,-10.45,-10.53,0,*57
1486580870.16,22287,11.25,73474.0,-8.37,-10.41,-10.57,0,*56
1486580871.37,22288,11.25,73474.3,-8.37,-10.45,-10.53,0,*59
1486580872.63,22289,11.25,73474.8,-8.35,-10.41,-10.57,0,*5A
1486580873.86,22290,11.25,73476.8,-8.35,-10.53,-10.57,0,*51
1486580875.12,22291,11.25,73476.3,-8.35,-10.53,-10.71,0,*54
1486580876.37,22292,11.25,73474.5,-8.35,-10.53,-10.71,0,*57
1486580877.63,22293,11.25,73474.5,-8.35,-10.53,-10.67,0,*51
1486580878.89,22294,11.25,73476.5,-8.35,-10.53,-10.71,0,*51
1486580880.15,22295,11.25,73470.3,-8.35,-10.67,-10.85,0,*5C
1486580881.38,22296,11.25,73474.5,-8.37,-10.71,-10.85,0,*5A
1486580882.62,22297,11.25,73474.8,-8.37,-10.71,-10.97,0,*58
1486580883.86,22298,11.25,73474.5,-8.37,-10.71,-11.01,0,*59
1486580885.09,22299,11.25,73478.3,-8.35,-10.85,-11.11,0,*50
1486580886.29,22300,11.25,73478.8,-8.37,-10.85,-11.15,0,*57
1486580887.53,22301,11.25,73478.0,-8.37,-10.85,-11.29,0,*59
1486580888.79,22302,11.25,73476.8,-8.35,-10.93,-11.37,0,*50
1486580890.02,22303,11.25,73476.8,-8.37,-10.93,-11.55,0,*57
1486580891.28,22304,11.25,73478.8,-8.35,-11.11,-11.55,0,*59
1486580892.53,22305,11.25,73476.3,-8.37,-11.01,-11.63,0,*5E
1486580893.76,22306,11.25,73476.5,-8.37,-11.11,-11.67,0,*58
1486580895.02,22307,11.25,73476.5,-8.35,-11.15,-11.77,0,*5E